Weather History for Tunica, MS

Change the Weather History Date:

Friday, March 22, 2013

  Actual Average (KMEM) Record (KMEM)
Temperature  
Mean Temperature 42 °F 56 °F  
Max Temperature 48 °F 66 °F 83 °F (1898)
Min Temperature 37 °F 46 °F 23 °F (1968)
Degree Days  
Heating Degree Days 22 10  
Month to date heating degree days 280  
Since 1 July heating degree days 2730  
Cooling Degree Days 0 1  
Month to date cooling degree days 7  
Year to date cooling degree days 10  
Moisture  
Dew Point 40 °F    
Average Humidity 90    
Maximum Humidity 93    
Minimum Humidity 87    
Precipitation  
Precipitation 0.11 in 0.18 in 2.81 in (1953)
Month to date precipitation 3.56  
Year to date precipitation 11.93  
Snow  
Snow 0.00 in 0.00 in 7.40 in (1968)
Month to date snowfall 0.4  
Since 1 July snowfall 3.8  
Snow Depth -    
Sea Level Pressure  
Sea Level Pressure 29.93 in    
Wind  
Wind Speed 9 mph (East)    
Max Wind Speed 18 mph    
Max Gust Speed 22 mph    
Visibility 9 miles    
Events Rain    
T = Trace of Precipitation, MM = Missing Value Source: NWS Daily Summary

Daily Weather History Graph

Daily Weather History Graph

Search for Another Location

Airport:

Trip Planner

Search our weather history database for the weather conditions in past years. The results will help you decide how hot, cold, wet, or windy it might be!

Date:

Astronomy

Mar. 22, 2013 Rise Set
Actual Time 7:01 AM CDT 7:14 PM CDT
Civil Twilight 6:36 AM CDT 7:40 PM CDT
Nautical Twilight 6:07 AM CDT 8:09 PM CDT
Astronomical Twilight 5:37 AM CDT 8:39 PM CDT
Moon 2:51 PM CDT (3/22) 3:52 AM CDT (3/22)
Length of Visible Light 13h 03m
Length of Day
12h 12m
Waxing Gibbous, 77% of the Moon is Illuminated
Mar 22
Waxing Gibbous
Mar 27
Full
Apr 2
Last Quarter
Apr 10
New
Apr 18
First Quarter

Hourly Weather History & Observations

Time (CDT) Temp. Windchill Dew Point Humidity Pressure Visibility Wind Dir Wind Speed Gust Speed Precip Events Conditions
12:15 AM 37.4 °F 30.3 °F 35.6 °F 93% 29.98 in 10.0 mi East 10.4 mph - 0.01 in Rain Rain
12:35 AM 37.4 °F 30.8 °F 35.6 °F 93% 29.98 in 10.0 mi ENE 9.2 mph - 0.01 in   Drizzle
12:55 AM 37.4 °F 29.8 °F 35.6 °F 93% 29.96 in 10.0 mi East 11.5 mph - 0.01 in Rain Light Rain
1:15 AM 37.4 °F 30.3 °F 35.6 °F 93% 29.95 in 10.0 mi East 10.4 mph - N/A   Scattered Clouds
1:35 AM 37.4 °F 29.3 °F 35.6 °F 93% 29.95 in 10.0 mi East 12.7 mph - N/A   Light Drizzle
1:55 AM 37.4 °F 30.8 °F 35.6 °F 93% 29.96 in 7.0 mi East 9.2 mph - N/A   Light Drizzle
2:15 AM 37.4 °F 30.3 °F 35.6 °F 93% 29.95 in 10.0 mi East 10.4 mph - N/A   Light Drizzle
2:35 AM 37.4 °F 30.8 °F 35.6 °F 93% 29.96 in 7.0 mi ENE 9.2 mph - N/A   Light Drizzle
2:55 AM 37.4 °F 29.3 °F 35.6 °F 93% 29.94 in 10.0 mi East 12.7 mph - N/A Rain Light Rain
3:15 AM 37.4 °F 31.4 °F 35.6 °F 93% 29.95 in 10.0 mi ENE 8.1 mph - N/A   Overcast
3:35 AM 37.4 °F 31.4 °F 35.6 °F 93% 29.93 in 10.0 mi ESE 8.1 mph - N/A   Mostly Cloudy
3:55 AM 37.4 °F 30.8 °F 35.6 °F 93% 29.92 in 10.0 mi East 9.2 mph - N/A   Mostly Cloudy
4:15 AM 37.4 °F 31.4 °F 35.6 °F 93% 29.91 in 10.0 mi East 8.1 mph - N/A   Overcast
4:35 AM 37.4 °F 32.1 °F 35.6 °F 93% 29.91 in 10.0 mi East 6.9 mph - N/A   Light Drizzle
4:55 AM 37.4 °F 31.4 °F 35.6 °F 93% 29.91 in 10.0 mi East 8.1 mph - N/A Rain Light Rain
5:15 AM 37.4 °F 30.8 °F 35.6 °F 93% 29.91 in 10.0 mi East 9.2 mph - N/A Rain Light Rain
5:35 AM 39.2 °F 34.2 °F 37.4 °F 93% 29.92 in 10.0 mi East 6.9 mph - N/A Rain Light Rain
5:55 AM 39.2 °F 33.0 °F 37.4 °F 93% 29.92 in 10.0 mi East 9.2 mph - 0.01 in Rain Light Rain
6:15 AM 39.2 °F 33.0 °F 37.4 °F 93% 29.93 in 10.0 mi East 9.2 mph - N/A   Light Drizzle
6:35 AM 39.2 °F 33.6 °F 37.4 °F 93% 29.95 in 10.0 mi East 8.1 mph - N/A Rain Light Rain
6:55 AM 39.2 °F 33.0 °F 37.4 °F 93% 29.95 in 10.0 mi East 9.2 mph - 0.02 in Rain Light Rain
7:15 AM 39.2 °F 33.0 °F 37.4 °F 93% 29.95 in 7.0 mi East 9.2 mph - 0.01 in Rain Light Rain
7:35 AM 39.2 °F 33.6 °F 37.4 °F 93% 29.94 in 7.0 mi East 8.1 mph - 0.03 in Rain Light Rain
7:55 AM 39.2 °F 34.2 °F 37.4 °F 93% 29.94 in 7.0 mi East 6.9 mph - 0.04 in Rain Rain
8:15 AM 41.0 °F 35.2 °F 37.4 °F 87% 29.95 in 10.0 mi East 9.2 mph - N/A   Light Drizzle
8:35 AM 41.0 °F 34.7 °F 37.4 °F 87% 29.95 in 10.0 mi East 10.4 mph - N/A   Overcast
8:55 AM 41.0 °F 35.2 °F 37.4 °F 87% 29.95 in 10.0 mi East 9.2 mph - N/A   Overcast
9:15 AM 41.0 °F 35.8 °F 37.4 °F 87% 29.95 in 10.0 mi East 8.1 mph - N/A   Overcast
9:35 AM 41.0 °F 37.1 °F 39.2 °F 93% 29.95 in 10.0 mi East 5.8 mph - N/A   Overcast
9:55 AM 41.0 °F 37.1 °F 39.2 °F 93% 29.96 in 10.0 mi East 5.8 mph - N/A   Overcast
10:15 AM 42.8 °F 39.3 °F 39.2 °F 87% 29.96 in 10.0 mi East 5.8 mph - N/A   Overcast
10:35 AM 42.8 °F 38.0 °F 39.2 °F 87% 29.98 in 10.0 mi ENE 8.1 mph - N/A   Overcast
10:55 AM 42.8 °F 40.1 °F 39.2 °F 87% 29.98 in 10.0 mi East 4.6 mph - N/A   Overcast
11:15 AM 42.8 °F 37.5 °F 41.0 °F 93% 29.96 in 4.0 mi East 9.2 mph - 0.01 in Rain Rain
11:35 AM 42.8 °F 34.5 °F 41.0 °F 93% 29.93 in 7.0 mi SE 18.4 mph 21.9 mph 0.03 in Rain Light Rain
11:55 AM 44.6 °F 39.2 °F 41.0 °F 87% 29.94 in 7.0 mi ESE 10.4 mph 18.4 mph 0.03 in   Overcast
12:15 PM 42.8 °F 38.0 °F 41.0 °F 93% 29.95 in 10.0 mi East 8.1 mph - N/A   Light Drizzle
12:35 PM 44.6 °F 41.4 °F 41.0 °F 87% 29.94 in 10.0 mi ESE 5.8 mph - N/A   Overcast
12:55 PM 44.6 °F 40.7 °F 41.0 °F 87% 29.94 in 10.0 mi East 6.9 mph - N/A   Overcast
1:15 PM 44.6 °F 41.4 °F 41.0 °F 87% 29.93 in 10.0 mi East 5.8 mph - N/A   Mostly Cloudy
1:35 PM 44.6 °F 40.7 °F 41.0 °F 87% 29.93 in 10.0 mi East 6.9 mph - N/A   Overcast
1:55 PM 44.6 °F 41.4 °F 42.8 °F 93% 29.92 in 10.0 mi East 5.8 mph - N/A   Overcast
2:15 PM 46.4 °F 42.9 °F 42.8 °F 87% 29.90 in 10.0 mi East 6.9 mph - N/A   Overcast
2:35 PM 46.4 °F 41.9 °F 42.8 °F 87% 29.90 in 10.0 mi East 9.2 mph - N/A   Overcast
2:55 PM 46.4 °F 41.9 °F 42.8 °F 87% 29.89 in 10.0 mi East 9.2 mph - N/A   Overcast
3:15 PM 46.4 °F 41.9 °F 42.8 °F 87% 29.88 in 10.0 mi East 9.2 mph - N/A   Overcast
3:35 PM 46.4 °F 41.5 °F 42.8 °F 87% 29.87 in 10.0 mi East 10.4 mph - N/A   Overcast
3:55 PM 46.4 °F 41.5 °F 42.8 °F 87% 29.87 in 10.0 mi East 10.4 mph - N/A   Overcast
4:15 PM 46.4 °F 42.9 °F 42.8 °F 87% 29.87 in 10.0 mi East 6.9 mph - N/A   Overcast
4:55 PM 48.2 °F - 44.6 °F 87% 29.89 in 10.0 mi East 6.9 mph - N/A   Overcast
5:15 PM 48.2 °F - 44.6 °F 87% 29.89 in 10.0 mi ENE 6.9 mph - N/A   Overcast
5:35 PM 48.2 °F - 44.6 °F 87% 29.89 in 10.0 mi ENE 6.9 mph - N/A   Overcast
5:55 PM 48.2 °F - 44.6 °F 87% 29.89 in 10.0 mi NE 6.9 mph - N/A   Overcast
6:15 PM 48.2 °F - 44.6 °F 87% 29.90 in 10.0 mi NE 6.9 mph - N/A   Overcast
6:35 PM 48.2 °F - 44.6 °F 87% 29.90 in 10.0 mi NE 6.9 mph - N/A   Overcast
6:55 PM 48.2 °F - 44.6 °F 87% 29.90 in 10.0 mi ENE 8.1 mph - N/A   Overcast
7:15 PM 48.2 °F - 44.6 °F 87% 29.90 in 10.0 mi ENE 8.1 mph - N/A   Overcast
7:35 PM 48.2 °F - 44.6 °F 87% 29.90 in 10.0 mi ENE 6.9 mph - N/A   Overcast
7:55 PM 48.2 °F - 44.6 °F 87% 29.91 in 10.0 mi ENE 6.9 mph - N/A   Overcast
8:15 PM 48.2 °F - 44.6 °F 87% 29.91 in 10.0 mi ENE 8.1 mph - N/A   Overcast
8:35 PM 48.2 °F - 44.6 °F 87% 29.92 in 10.0 mi ENE 8.1 mph - N/A   Overcast
8:55 PM 46.4 °F 43.5 °F 44.6 °F 93% 29.93 in 7.0 mi ENE 5.8 mph - N/A   Overcast
9:15 PM 46.4 °F 42.9 °F 44.6 °F 93% 29.92 in 5.0 mi ENE 6.9 mph - N/A   Overcast
9:35 PM 46.4 °F 43.5 °F 44.6 °F 93% 29.93 in 10.0 mi East 5.8 mph - N/A   Overcast
9:55 PM 46.4 °F 42.9 °F 44.6 °F 93% 29.94 in 10.0 mi East 6.9 mph - N/A   Mostly Cloudy
10:15 PM 46.4 °F 44.3 °F 44.6 °F 93% 29.94 in 7.0 mi NE 4.6 mph - N/A   Overcast
10:35 PM 46.4 °F 42.4 °F 44.6 °F 93% 29.93 in 4.0 mi ENE 8.1 mph - N/A   Overcast
10:55 PM 46.4 °F 44.3 °F 44.6 °F 93% 29.94 in 4.0 mi NE 4.6 mph - N/A   Overcast
11:15 PM 46.4 °F 43.5 °F 44.6 °F 93% 29.93 in 4.0 mi NE 5.8 mph - N/A   Overcast
11:35 PM 46.4 °F 42.9 °F 44.6 °F 93% 29.92 in 4.0 mi NE 6.9 mph - N/A   Overcast
11:55 PM 46.4 °F 42.4 °F 44.6 °F 93% 29.90 in 10.0 mi East 8.1 mph - N/A   Overcast